This demonstration page uses our WeatherBlox Daily Observations layout. Learn more.

Left ArrowRight Arrow

Hourly Observations for June 23, 2017

Temp ( °F °C ) Dew Point ( °F °C ) Humidity (%) Winds ( mph kmh ) Pressure ( in mb ) Visibility ( mi km ) Precip ( " mm )
12:51 am 00:51 Clear 90 32.2 40 4.4 17 17 NW 16 26 29.62 1003 10 16 N/A
1:51 am 01:51 Clear 89 31.7 40 4.4 18 18 NW 13 20 29.62 1003 10 16 N/A
2:51 am 02:51 Clear 87 30.6 41 5 20 20 NW 17 28 29.62 1003 10 16 N/A
3:51 am 03:51 Clear 86 30 43 6.1 22 22 NW 15 24 29.63 1003 10 16 N/A
4:51 am 04:51 Clear 84 28.9 47 8.3 27 27 NW 14 22 29.65 1004 10 16 N/A
5:51 am 05:51 Sunny 84 28.9 49 9.4 30 30 NNW 14 22 29.68 1005 10 16 N/A
6:51 am 06:51 Sunny 88 31.1 51 10.6 28 28 WNW 14 22 29.68 1005 10 16 N/A
7:51 am 07:51 Sunny 91 32.8 53 11.7 27 27 WNW 16 26 29.70 1006 10 16 N/A
8:51 am 08:51 Sunny 95 35 52 11.1 23 23 NW 21 33 29.69 1005 10 16 N/A
9:51 am 09:51 Sunny 98 36.7 49 9.4 19 19 WNW 24 39 29.68 1005 10 16 N/A
10:51 am 10:51 Sunny 103 39.4 45 7.2 14 14 WNW 21 33 29.66 1005 10 16 N/A
11:51 am 11:51 Sunny 107 41.7 37 2.8 9 9 WNW 20 31 29.65 1004 10 16 N/A
12:51 pm 12:51 Sunny 109 42.8 32 undefined 7 7 WNW 17 28 29.62 1003 10 16 N/A
1:51 pm 13:51 Sunny 109 42.8 24 -4.4 5 5 W 18 30 29.61 1003 10 16 N/A
2:51 pm 14:51 Sunny 109 42.8 24 -4.4 5 5 WNW 10 17 29.60 1002 10 16 N/A
3:51 pm 15:51 Sunny 111 43.9 28 -2.2 5 5 WNW 18 30 29.57 1002 10 16 N/A
4:51 pm 16:51 Sunny 109 42.8 33 0.6 7 7 W 21 33 29.56 1001 10 16 N/A
5:51 pm 17:51 Sunny 107 41.7 34 1.1 8 8 WNW 18 30 29.57 1001 10 16 N/A
6:51 pm 18:51 Sunny 103 39.4 34 1.1 9 9 WNW 21 33 29.58 1002 10 16 N/A
7:51 pm 19:51 Clear 98 36.7 37 2.8 12 12 WNW 13 20 29.62 1003 10 16 N/A
8:51 pm 20:51 Clear 95 35 38 3.3 14 14 NW 14 22 29.65 1004 10 16 N/A
9:51 pm 21:51 Clear 94 34.4 41 5 16 16 NW 16 26 29.66 1004 10 16 N/A
10:51 pm 22:51 Clear 92 33.3 41 5 17 17 NW 13 20 29.67 1005 10 16 N/A
11:51 pm 23:51 Clear 91 32.8 41 5 17 17 NW 10 17 29.67 1005 10 16 N/A

Powered by AerisWeather